Weather History for KAVX - October, 2013

Change the Weather History Date:

Wednesday, October 23, 2013

  Actual Average Record
Temperature  
Mean Temperature 54 °F -  
Max Temperature 57 °F 65 °F 89 °F (2003)
Min Temperature 51 °F 54 °F 51 °F (2002)
Degree Days  
Heating Degree Days 11    
Growing Degree Days 4 (Base 50)    
Moisture  
Dew Point 50 °F    
Average Humidity 85    
Maximum Humidity 100    
Minimum Humidity 72    
Precipitation  
Precipitation 0.00 in - - ()
Sea Level Pressure  
Sea Level Pressure 29.95 in    
Wind  
Wind Speed 5 mph (WSW)    
Max Wind Speed 13 mph    
Max Gust Speed -    
Visibility 8 miles    
Events Fog    
Averages and records for this station are not official NWS values.
T = Trace of Precipitation, MM = Missing Value Source: NWS Daily Summary

Daily Weather History Graph

Daily Weather History Graph

Search for Another Location

Airport or City:

Trip Planner

Search our weather history database for the weather conditions in past years. The results will help you decide how hot, cold, wet, or windy it might be!

Date:

Astronomy

Oct. 23, 2013 Rise Set
Actual Time 7:04 AM PDT 6:10 PM PDT
Civil Twilight 6:39 AM PDT 6:35 PM PDT
Nautical Twilight 6:10 AM PDT 7:04 PM PDT
Astronomical Twilight 5:41 AM PDT 7:33 PM PDT
Moon 9:52 PM PDT (10/23) 11:18 AM PDT (10/23)
Length of Visible Light 11h 56m
Length of Day
11h 05m
Waning Gibbous, 78% of the Moon is Illuminated
Oct 23
Waning Gibbous
Oct 26
Last Quarter
Nov 3
New
Nov 9
First Quarter
Nov 17
Full

Hourly Weather History & Observations

Time (PDT) Temp. Dew Point Humidity Pressure Visibility Wind Dir Wind Speed Gust Speed Precip Events Conditions
12:51 AM 53.1 °F 52.0 °F 96% 29.94 in 0.2 mi West 3.5 mph - N/A Fog Fog
1:51 AM 53.1 °F 52.0 °F 96% 29.94 in 0.2 mi Calm Calm - N/A Fog Fog
2:26 AM 53.6 °F 51.8 °F 94% 29.96 in 1.2 mi WSW 4.6 mph - N/A   Overcast
2:49 AM 51.8 °F 51.8 °F 100% 29.95 in 2.0 mi Calm Calm - N/A   Overcast
2:51 AM 52.0 °F 51.1 °F 97% 29.93 in 2.5 mi WSW 4.6 mph - N/A   Overcast
3:13 AM 51.8 °F 51.8 °F 100% 29.95 in 4.0 mi SW 4.6 mph - N/A   Overcast
3:51 AM 52.0 °F 50.0 °F 93% 29.92 in 6.0 mi SSW 4.6 mph - N/A   Overcast
4:51 AM 52.0 °F 50.0 °F 93% 29.93 in 7.0 mi Calm Calm - N/A   Overcast
5:51 AM 53.1 °F 50.0 °F 89% 29.94 in 8.0 mi SW 4.6 mph - N/A   Overcast
6:51 AM 53.1 °F 50.0 °F 89% 29.94 in 8.0 mi Calm Calm - N/A   Overcast
7:51 AM 53.1 °F 48.9 °F 86% 29.96 in 7.0 mi SW 3.5 mph - N/A   Overcast
8:51 AM 53.1 °F 50.0 °F 89% 29.97 in 7.0 mi West 6.9 mph - N/A   Overcast
9:14 AM 53.6 °F 51.8 °F 94% 29.97 in 7.0 mi South 4.6 mph - N/A   Overcast
9:51 AM 55.0 °F 50.0 °F 83% 29.96 in 10.0 mi Calm Calm - N/A   Overcast
10:51 AM 55.9 °F 50.0 °F 80% 29.96 in 10.0 mi West 6.9 mph - N/A   Overcast
11:51 AM 55.9 °F 50.0 °F 80% 29.96 in 10.0 mi West 9.2 mph - N/A   Mostly Cloudy
12:51 PM 57.0 °F 50.0 °F 77% 29.95 in 10.0 mi West 10.4 mph - N/A   Overcast
1:51 PM 57.0 °F 50.0 °F 77% 29.93 in 10.0 mi WSW 11.5 mph - N/A   Mostly Cloudy
2:07 PM 57.2 °F 48.2 °F 72% 29.94 in 10.0 mi WSW 12.7 mph - N/A   Scattered Clouds
2:51 PM 57.0 °F 48.9 °F 74% 29.92 in 10.0 mi WSW 11.5 mph - N/A   Clear
3:33 PM 55.4 °F 48.2 °F 77% 29.94 in 10.0 mi WSW 11.5 mph - N/A   Partly Cloudy
3:51 PM 55.0 °F 48.9 °F 80% 29.92 in 10.0 mi WSW 11.5 mph - N/A   Scattered Clouds
4:14 PM 55.4 °F 48.2 °F 77% 29.94 in 10.0 mi WSW 8.1 mph - N/A   Mostly Cloudy
4:22 PM 55.4 °F 48.2 °F 77% 29.94 in 10.0 mi WSW 9.2 mph - N/A   Scattered Clouds
4:51 PM 54.0 °F 48.0 °F 80% 29.93 in 10.0 mi WSW 9.2 mph - N/A   Scattered Clouds
5:01 PM 53.6 °F 48.2 °F 82% 29.94 in 10.0 mi SW 6.9 mph - N/A   Mostly Cloudy
5:51 PM 53.1 °F 48.0 °F 83% 29.94 in 9.0 mi WSW 10.4 mph - N/A   Mostly Cloudy
6:03 PM 53.6 °F 48.2 °F 82% 29.94 in 9.0 mi WSW 9.2 mph - N/A   Scattered Clouds
6:30 PM 53.6 °F 48.2 °F 82% 29.95 in 9.0 mi SW 6.9 mph - N/A   Mostly Cloudy
6:51 PM 53.1 °F 48.9 °F 86% 29.95 in 9.0 mi WSW 6.9 mph - N/A   Overcast
7:51 PM 53.1 °F 48.9 °F 86% 29.96 in 8.0 mi Calm Calm - N/A   Overcast
8:51 PM 54.0 °F 50.0 °F 86% 29.96 in 9.0 mi Calm Calm - N/A   Overcast
9:51 PM 55.0 °F 50.0 °F 83% 29.97 in 9.0 mi Calm Calm - N/A   Overcast
10:51 PM 54.0 °F 50.0 °F 86% 29.98 in 9.0 mi Calm Calm - N/A   Overcast
11:51 PM 55.0 °F 50.0 °F 83% 29.97 in 8.0 mi Calm Calm - N/A   Overcast